EWG211 EDDB-ESSA

Flight info

Callsign EWG211
Flight time 1h 20m
Altitude 38000
Route GERGA3Q/06R GERGA M725 RENKI Y89 USEDU DCT BANUB DCT POKEN DCT VIBAR Z227 NILUG
Aircraft A20N/M-SDE2E3FGHIRWXY/LB1

Departure

Time 2026-05-07 21:00
Airport Berlin Brandenburg Airport (EDDB)

Arrival

Time 2026-05-07 22:20
Airport Stockholm-Arlanda Airport (ESSA)
Time Latitude Longitude Altitude Speed Heading
2026-05-07 20:36 52.36068 13.51048 155 ft 0 kts 339°
2026-05-07 20:49 52.36061 13.51053 155 ft 2 kts 340°
2026-05-07 20:50 52.36047 13.51061 155 ft 2 kts 338°
2026-05-07 20:50 52.36033 13.51070 154 ft 2 kts 339°
2026-05-07 20:50 52.36018 13.51079 154 ft 2 kts 338°
2026-05-07 20:50 52.36005 13.51087 153 ft 0 kts 339°
2026-05-07 20:51 52.35996 13.51095 153 ft 2 kts 311°
2026-05-07 20:51 52.35989 13.51117 153 ft 2 kts 272°
2026-05-07 20:51 52.35990 13.51131 153 ft 1 kts 250°
2026-05-07 20:51 52.35993 13.51141 153 ft 0 kts 248°
2026-05-07 20:53 52.35993 13.51140 153 ft 0 kts 248°
2026-05-07 20:53 52.35978 13.51075 153 ft 9 kts 249°
2026-05-07 20:53 52.35952 13.50967 152 ft 11 kts 249°
2026-05-07 20:54 52.35922 13.50837 152 ft 12 kts 248°
2026-05-07 20:54 52.35888 13.50695 152 ft 14 kts 248°
2026-05-07 20:54 52.35804 13.50629 151 ft 14 kts 182°
2026-05-07 20:54 52.35745 13.50502 151 ft 15 kts 248°
2026-05-07 20:55 52.35702 13.50319 150 ft 18 kts 248°
2026-05-07 20:55 52.35652 13.50111 150 ft 20 kts 248°
2026-05-07 20:55 52.35601 13.49893 150 ft 20 kts 249°
2026-05-07 20:55 52.35549 13.49674 150 ft 20 kts 248°
2026-05-07 20:56 52.35498 13.49461 150 ft 20 kts 249°
2026-05-07 20:56 52.35448 13.49246 150 ft 20 kts 249°
2026-05-07 20:56 52.35397 13.49032 150 ft 19 kts 249°
2026-05-07 20:56 52.35348 13.48823 150 ft 19 kts 248°
2026-05-07 20:57 52.35298 13.48614 150 ft 18 kts 249°
2026-05-07 20:57 52.35232 13.48478 151 ft 16 kts 182°
2026-05-07 20:57 52.35128 13.48540 151 ft 14 kts 143°
2026-05-07 20:57 52.35101 13.48635 151 ft 5 kts 98°
2026-05-07 20:58 52.35101 13.48640 151 ft 0 kts 98°
2026-05-07 20:58 52.35099 13.48654 151 ft 3 kts 98°
2026-05-07 20:58 52.35094 13.48713 151 ft 7 kts 98°
2026-05-07 20:59 52.35084 13.48819 151 ft 11 kts 99°
2026-05-07 20:59 52.35069 13.48954 151 ft 12 kts 99°
2026-05-07 20:59 52.35088 13.49136 151 ft 37 kts 69°
2026-05-07 20:59 52.35294 13.50003 151 ft 121 kts 68°
2026-05-07 21:00 52.35664 13.51573 397 ft 162 kts 68°
2026-05-07 21:00 52.35947 13.53260 1299 ft 157 kts 91°
2026-05-07 21:00 52.35469 13.54762 2152 ft 164 kts 131°
2026-05-07 21:00 52.34507 13.55984 2709 ft 184 kts 140°
2026-05-07 21:01 52.33423 13.57242 3256 ft 204 kts 139°
2026-05-07 21:01 52.32286 13.58688 4120 ft 210 kts 137°
2026-05-07 21:01 52.31243 13.60249 5090 ft 209 kts 121°
2026-05-07 21:01 52.30809 13.62435 6008 ft 208 kts 86°
2026-05-07 21:02 52.31144 13.64795 6730 ft 223 kts 70°
2026-05-07 21:02 52.31661 13.67249 7523 ft 236 kts 71°
2026-05-07 21:02 52.32173 13.69755 8473 ft 241 kts 71°
2026-05-07 21:02 52.32670 13.72366 9392 ft 247 kts 76°
2026-05-07 21:03 52.32900 13.75183 10254 ft 255 kts 88°
2026-05-07 21:03 52.32854 13.78155 10900 ft 273 kts 92°
2026-05-07 21:03 52.32730 13.81326 11506 ft 291 kts 93°
2026-05-07 21:03 52.32590 13.84672 12264 ft 301 kts 94°
2026-05-07 21:04 52.32453 13.88065 13196 ft 305 kts 93°
2026-05-07 21:04 52.32323 13.91484 14134 ft 308 kts 93°
2026-05-07 21:04 52.32189 13.94986 15047 ft 313 kts 93°
2026-05-07 21:04 52.32081 13.98537 15920 ft 317 kts 88°
2026-05-07 21:05 52.32545 14.02007 16739 ft 319 kts 64°
2026-05-07 21:05 52.33814 14.04932 17589 ft 320 kts 41°
2026-05-07 21:05 52.35662 14.06891 18267 ft 326 kts 20°
2026-05-07 21:05 52.37930 14.07575 18649 ft 342 kts 357°
2026-05-07 21:06 52.40305 14.07097 19204 ft 352 kts 351°
2026-05-07 21:06 52.42722 14.06530 19968 ft 356 kts 352°
2026-05-07 21:06 52.45182 14.05983 20767 ft 359 kts 352°
2026-05-07 21:06 52.47641 14.05454 21536 ft 362 kts 353°
2026-05-07 21:07 52.50131 14.04929 22288 ft 364 kts 353°
2026-05-07 21:07 52.52665 14.04397 23025 ft 367 kts 353°
2026-05-07 21:07 52.55193 14.03865 23715 ft 370 kts 353°
2026-05-07 21:07 52.57752 14.03326 24379 ft 374 kts 353°
2026-05-07 21:08 52.60330 14.02782 25014 ft 377 kts 353°
2026-05-07 21:08 52.62943 14.02228 25615 ft 382 kts 353°
2026-05-07 21:08 52.65569 14.01671 26209 ft 386 kts 353°
2026-05-07 21:08 52.68231 14.01106 26811 ft 389 kts 354°
2026-05-07 21:09 52.70895 14.00542 27383 ft 392 kts 353°
2026-05-07 21:09 52.73627 13.99962 27928 ft 396 kts 353°
2026-05-07 21:09 52.76333 13.99385 28452 ft 399 kts 353°
2026-05-07 21:09 52.79111 13.98793 28980 ft 402 kts 353°
2026-05-07 21:10 52.81883 13.98204 29484 ft 405 kts 353°
2026-05-07 21:10 52.84678 13.97608 29960 ft 408 kts 354°
2026-05-07 21:10 52.87495 13.97069 30443 ft 411 kts 356°
2026-05-07 21:10 52.90322 13.96775 30891 ft 413 kts 359°
2026-05-07 21:11 52.93190 13.96751 31418 ft 413 kts
2026-05-07 21:11 52.96048 13.97002 31916 ft 411 kts
2026-05-07 21:11 53.01720 13.97987 32600 ft 414 kts
2026-05-07 21:12 53.04579 13.98524 32903 ft 416 kts
2026-05-07 21:12 53.07436 13.99061 33205 ft 417 kts
2026-05-07 21:12 53.10339 13.99604 33491 ft 419 kts
2026-05-07 21:12 53.13236 14.00144 33777 ft 421 kts
2026-05-07 21:13 53.16140 14.00687 34057 ft 423 kts
2026-05-07 21:13 53.19048 14.01229 34335 ft 424 kts
2026-05-07 21:13 53.21960 14.01772 34629 ft 425 kts
2026-05-07 21:13 53.24881 14.02316 34946 ft 426 kts
2026-05-07 21:14 53.27815 14.02864 35280 ft 425 kts
2026-05-07 21:14 53.30736 14.03410 35589 ft 425 kts
2026-05-07 21:14 53.33668 14.03959 35876 ft 425 kts
2026-05-07 21:14 53.36591 14.04506 36151 ft 426 kts
2026-05-07 21:15 53.39527 14.05057 36419 ft 427 kts
2026-05-07 21:15 53.42474 14.05611 36653 ft 429 kts
2026-05-07 21:15 53.45444 14.06173 36855 ft 431 kts
2026-05-07 21:15 53.48413 14.06735 37062 ft 433 kts
2026-05-07 21:16 53.51405 14.07301 37277 ft 434 kts
2026-05-07 21:16 53.54411 14.07855 37503 ft 436 kts
2026-05-07 21:16 53.57402 14.08190 37706 ft 437 kts
2026-05-07 21:16 53.60426 14.08232 37897 ft 438 kts 358°
2026-05-07 21:17 53.63491 14.07965 38062 ft 440 kts 354°
2026-05-07 21:17 53.66517 14.07394 38111 ft 441 kts 351°
2026-05-07 21:17 53.72533 14.05409 38133 ft 441 kts 346°
2026-05-07 21:18 53.78468 14.03113 38146 ft 441 kts 346°
2026-05-07 21:18 53.84435 14.00816 38142 ft 441 kts 346°
2026-05-07 21:19 53.90451 13.98964 38143 ft 441 kts 354°
2026-05-07 21:19 53.96560 13.99060 38145 ft 442 kts
2026-05-07 21:20 54.02525 14.01242 38143 ft 446 kts 18°
2026-05-07 21:20 54.08430 14.04955 38141 ft 458 kts 21°
2026-05-07 21:21 54.14402 14.08884 38137 ft 465 kts 20°
2026-05-07 21:21 54.20262 14.12714 38139 ft 466 kts 20°
2026-05-07 21:22 54.26303 14.16653 38132 ft 466 kts 20°
2026-05-07 21:22 54.32337 14.20596 38138 ft 466 kts 20°
2026-05-07 21:23 54.38378 14.24558 38138 ft 468 kts 20°
2026-05-07 21:23 54.44433 14.28541 38140 ft 470 kts 20°
2026-05-07 21:24 54.50462 14.32803 38140 ft 471 kts 23°
2026-05-07 21:24 54.56441 14.37256 38135 ft 471 kts 23°
2026-05-07 21:25 54.62437 14.41736 38141 ft 472 kts 23°
2026-05-07 21:25 54.68470 14.46248 38135 ft 472 kts 23°
2026-05-07 21:26 54.74451 14.50735 38140 ft 472 kts 23°
2026-05-07 21:26 54.80451 14.55245 38144 ft 472 kts 22°
2026-05-07 21:27 54.86589 14.59268 38138 ft 471 kts 19°
2026-05-07 21:27 54.92705 14.63008 38143 ft 470 kts 19°
2026-05-07 21:28 54.98894 14.66807 38140 ft 471 kts 19°
2026-05-07 21:28 55.05036 14.70606 38143 ft 471 kts 19°
2026-05-07 21:29 55.11159 14.74412 38153 ft 471 kts 19°
2026-05-07 21:29 55.17325 14.78258 38151 ft 471 kts 19°
2026-05-07 21:30 55.23493 14.82120 38147 ft 471 kts 19°
2026-05-07 21:30 55.29648 14.85987 38160 ft 470 kts 19°
2026-05-07 21:31 55.35777 14.89849 38160 ft 469 kts 19°
2026-05-07 21:31 55.41903 14.93722 38196 ft 469 kts 19°
2026-05-07 21:32 55.48004 14.97594 38153 ft 470 kts 19°
2026-05-07 21:32 55.54174 15.01521 38164 ft 471 kts 19°
2026-05-07 21:33 55.60311 15.05440 38170 ft 471 kts 19°
2026-05-07 21:33 55.66435 15.09363 38175 ft 470 kts 19°
2026-05-07 21:34 55.72570 15.13308 38167 ft 470 kts 19°
2026-05-07 21:34 55.78665 15.17239 38177 ft 470 kts 19°
2026-05-07 21:35 55.84781 15.21196 38169 ft 469 kts 19°
2026-05-07 21:35 55.90883 15.25160 38177 ft 469 kts 19°
2026-05-07 21:36 55.97001 15.29148 38175 ft 469 kts 19°
2026-05-07 21:36 56.03072 15.33117 38180 ft 469 kts 19°
2026-05-07 21:37 56.09192 15.37130 38175 ft 469 kts 19°
2026-05-07 21:37 56.15291 15.41145 38157 ft 469 kts 19°
2026-05-07 21:38 56.21396 15.45177 38174 ft 469 kts 19°
2026-05-07 21:38 56.27484 15.49213 38171 ft 468 kts 19°
2026-05-07 21:39 56.33560 15.53251 38161 ft 468 kts 19°
2026-05-07 21:39 56.39620 15.57296 38167 ft 468 kts 19°
2026-05-07 21:40 56.45715 15.61375 38162 ft 467 kts 19°
2026-05-07 21:40 56.51780 15.65451 38160 ft 467 kts 20°
2026-05-07 21:41 56.57816 15.69518 38151 ft 468 kts 20°
2026-05-07 21:41 56.63900 15.73634 38168 ft 468 kts 20°
2026-05-07 21:42 56.69968 15.77754 38148 ft 468 kts 20°
2026-05-07 21:42 56.76060 15.81904 38159 ft 468 kts 19°
2026-05-07 21:43 56.82099 15.86031 38158 ft 468 kts 19°
2026-05-07 21:43 56.88163 15.90190 38156 ft 468 kts 19°
2026-05-07 21:44 56.94249 15.94377 38155 ft 468 kts 19°
2026-05-07 21:44 57.00354 15.98593 38150 ft 469 kts 19°
2026-05-07 21:45 57.06395 16.02780 38157 ft 469 kts 19°
2026-05-07 21:45 57.12509 16.07034 38161 ft 469 kts 19°
2026-05-07 21:46 57.18549 16.11252 38169 ft 468 kts 19°
2026-05-07 21:46 57.24637 16.15517 38153 ft 467 kts 19°
2026-05-07 21:47 57.30658 16.19751 38165 ft 467 kts 19°
2026-05-07 21:47 57.36750 16.24051 38159 ft 468 kts 19°
2026-05-07 21:48 57.42789 16.28331 38180 ft 468 kts 19°
2026-05-07 21:48 57.48847 16.32641 38174 ft 468 kts 19°
2026-05-07 21:49 57.54883 16.37036 38161 ft 469 kts 21°
2026-05-07 21:49 57.60693 16.42416 38164 ft 470 kts 27°
2026-05-07 21:50 57.66251 16.48736 38175 ft 470 kts 30°
2026-05-07 21:50 57.71756 16.55199 38162 ft 470 kts 30°
2026-05-07 21:51 57.77288 16.61696 38169 ft 471 kts 30°
2026-05-07 21:51 57.82818 16.68201 38181 ft 472 kts 30°
2026-05-07 21:52 57.88367 16.74746 38198 ft 472 kts 30°
2026-05-07 21:52 57.93889 16.81281 38171 ft 471 kts 30°
2026-05-07 21:53 57.99397 16.87825 38173 ft 472 kts 30°
2026-05-07 21:53 58.04927 16.94416 38173 ft 472 kts 30°
2026-05-07 21:54 58.10431 17.01009 38006 ft 463 kts 30°
2026-05-07 21:54 58.13110 17.04229 37505 ft 460 kts 30°
2026-05-07 21:54 58.15778 17.07439 36926 ft 457 kts 29°
2026-05-07 21:55 58.18436 17.10644 36421 ft 453 kts 29°
2026-05-07 21:55 58.21078 17.13832 35992 ft 450 kts 29°
2026-05-07 21:55 58.23687 17.16988 35507 ft 447 kts 28°
2026-05-07 21:55 58.26283 17.20132 34987 ft 445 kts 28°
2026-05-07 21:56 58.28901 17.23308 34328 ft 443 kts 28°
2026-05-07 21:56 58.31455 17.26406 33594 ft 443 kts 28°
2026-05-07 21:56 58.34057 17.29573 32766 ft 444 kts 28°
2026-05-07 21:56 58.36647 17.32727 31895 ft 446 kts 28°
2026-05-07 21:57 58.39254 17.35906 30999 ft 448 kts 28°
2026-05-07 21:57 58.41867 17.39103 30165 ft 448 kts 28°
2026-05-07 21:57 58.44426 17.42241 29567 ft 442 kts 28°
2026-05-07 21:57 58.46994 17.45398 28947 ft 438 kts 28°
2026-05-07 21:58 58.49533 17.48524 28306 ft 434 kts 28°
2026-05-07 21:58 58.52028 17.51603 27645 ft 430 kts 28°
2026-05-07 21:58 58.54543 17.54704 26984 ft 427 kts 28°
2026-05-07 21:58 58.57005 17.57750 26341 ft 424 kts 28°
2026-05-07 21:59 58.59465 17.60800 25692 ft 421 kts 28°
2026-05-07 21:59 58.61903 17.63826 25072 ft 418 kts 28°
2026-05-07 21:59 58.64314 17.66825 24475 ft 415 kts 28°
2026-05-07 21:59 58.66723 17.69824 23860 ft 412 kts 29°
2026-05-07 22:00 58.69104 17.72794 23296 ft 409 kts 29°
2026-05-07 22:00 58.71444 17.75720 22767 ft 405 kts 29°
2026-05-07 22:00 58.73770 17.78636 22203 ft 396 kts 29°
2026-05-07 22:00 58.76045 17.81493 21177 ft 390 kts 29°
2026-05-07 22:01 58.78296 17.84315 20010 ft 385 kts 29°
2026-05-07 22:01 58.80479 17.87037 18861 ft 379 kts 28°
2026-05-07 22:01 58.82745 17.89519 17759 ft 375 kts 24°
2026-05-07 22:01 58.85064 17.91750 17272 ft 365 kts 22°
2026-05-07 22:02 58.87265 17.93827 17235 ft 349 kts 22°
2026-05-07 22:02 58.89444 17.95876 17216 ft 346 kts 22°
2026-05-07 22:02 58.91586 17.97889 17203 ft 346 kts 22°
2026-05-07 22:02 58.93759 17.99940 17205 ft 346 kts 22°
2026-05-07 22:03 58.95925 18.01989 17213 ft 346 kts 22°
2026-05-07 22:03 58.98074 18.04029 17213 ft 346 kts 22°
2026-05-07 22:03 59.00236 18.06086 17204 ft 346 kts 22°
2026-05-07 22:03 59.02365 18.08113 17205 ft 346 kts 22°
2026-05-07 22:04 59.04527 18.10175 17206 ft 346 kts 22°
2026-05-07 22:04 59.06677 18.12226 17204 ft 346 kts 22°
2026-05-07 22:04 59.08863 18.14105 17200 ft 343 kts 15°
2026-05-07 22:04 59.11163 18.15247 17211 ft 338 kts
2026-05-07 22:05 59.13467 18.15700 17204 ft 336 kts 360°
2026-05-07 22:05 59.15816 18.15969 17202 ft 336 kts 359°
2026-05-07 22:05 59.18133 18.16212 17196 ft 335 kts 359°
2026-05-07 22:05 59.20446 18.16461 17176 ft 335 kts 359°
2026-05-07 22:06 59.22770 18.16718 16796 ft 337 kts 359°
2026-05-07 22:06 59.25092 18.16981 16273 ft 336 kts 359°
2026-05-07 22:06 59.27410 18.17250 15792 ft 334 kts 359°
2026-05-07 22:06 59.29718 18.17520 15329 ft 331 kts 359°
2026-05-07 22:07 59.31995 18.17789 14868 ft 329 kts 360°
2026-05-07 22:07 59.34255 18.18055 14409 ft 326 kts 360°
2026-05-07 22:07 59.36496 18.18322 13989 ft 323 kts 360°
2026-05-07 22:07 59.38716 18.18588 13558 ft 320 kts
2026-05-07 22:08 59.40919 18.18850 13124 ft 317 kts
2026-05-07 22:08 59.43120 18.19113 12687 ft 315 kts
2026-05-07 22:08 59.45291 18.19373 12250 ft 312 kts
2026-05-07 22:08 59.47431 18.19628 11828 ft 310 kts
2026-05-07 22:09 59.49543 18.19879 11416 ft 307 kts
2026-05-07 22:09 59.51667 18.20135 11002 ft 304 kts
2026-05-07 22:09 59.53750 18.20561 10601 ft 302 kts
2026-05-07 22:09 59.55802 18.21247 10341 ft 293 kts
2026-05-07 22:10 59.57749 18.21956 10213 ft 279 kts
2026-05-07 22:10 59.59622 18.22645 9920 ft 273 kts
2026-05-07 22:10 59.61478 18.23323 9554 ft 270 kts
2026-05-07 22:10 59.63320 18.23994 9193 ft 267 kts
2026-05-07 22:11 59.65120 18.24651 8841 ft 264 kts
2026-05-07 22:11 59.66930 18.25312 8554 ft 265 kts
2026-05-07 22:11 59.68711 18.25964 8247 ft 264 kts
2026-05-07 22:11 59.70511 18.26624 7948 ft 263 kts
2026-05-07 22:12 59.72309 18.27284 7643 ft 262 kts
2026-05-07 22:12 59.74087 18.27937 7327 ft 261 kts
2026-05-07 22:12 59.75850 18.28586 7003 ft 259 kts
2026-05-07 22:12 59.77614 18.29237 6644 ft 258 kts
2026-05-07 22:13 59.79369 18.29883 6281 ft 257 kts
2026-05-07 22:13 59.81115 18.30527 5927 ft 257 kts
2026-05-07 22:13 59.82879 18.31177 5556 ft 256 kts 10°
2026-05-07 22:13 59.84621 18.31406 5124 ft 257 kts 349°
2026-05-07 22:14 59.86208 18.29869 4702 ft 259 kts 319°
2026-05-07 22:14 59.87201 18.26959 4369 ft 261 kts 289°
2026-05-07 22:14 59.87361 18.23368 4103 ft 265 kts 259°
2026-05-07 22:14 59.86731 18.19934 3854 ft 265 kts 245°
2026-05-07 22:15 59.85979 18.16619 3586 ft 264 kts 245°
2026-05-07 22:15 59.85229 18.13283 3329 ft 263 kts 245°
2026-05-07 22:15 59.84488 18.09940 3064 ft 261 kts 246°
2026-05-07 22:15 59.83781 18.06711 2806 ft 255 kts 246°
2026-05-07 22:16 59.83083 18.03512 2563 ft 249 kts 245°
2026-05-07 22:16 59.82410 18.00463 2498 ft 235 kts 241°
2026-05-07 22:16 59.81376 17.98181 2481 ft 215 kts 207°
2026-05-07 22:16 59.80041 17.97170 2487 ft 197 kts 191°
2026-05-07 22:17 59.78762 17.96677 2479 ft 182 kts 187°
2026-05-07 22:17 59.77528 17.96288 2344 ft 177 kts 187°
2026-05-07 22:17 59.76312 17.95887 2126 ft 176 kts 187°
2026-05-07 22:17 59.75151 17.95473 1931 ft 165 kts 188°
2026-05-07 22:18 59.74057 17.95070 1690 ft 153 kts 188°
2026-05-07 22:18 59.72127 17.94363 1243 ft 129 kts 188°
2026-05-07 22:18 59.71279 17.94056 1056 ft 121 kts 188°
2026-05-07 22:19 59.70461 17.93761 918 ft 120 kts 188°
2026-05-07 22:19 59.69642 17.93463 782 ft 120 kts 188°
2026-05-07 22:19 59.68816 17.93162 608 ft 120 kts 189°
2026-05-07 22:19 59.68002 17.92858 424 ft 119 kts 189°
2026-05-07 22:20 59.67191 17.92569 277 ft 119 kts 188°
2026-05-07 22:20 59.66381 17.92279 124 ft 117 kts 189°
2026-05-07 22:20 59.65699 17.92036 107 ft 76 kts 190°
2026-05-07 22:20 59.65296 17.91897 104 ft 44 kts 184°
2026-05-07 22:21 59.65070 17.91974 106 ft 19 kts 159°
2026-05-07 22:21 59.64984 17.92067 108 ft 12 kts 145°
2026-05-07 22:21 59.64902 17.92116 109 ft 12 kts 160°